TimeHST,TemperatureF,Dew PointF,Humidity,Sea Level PressureIn,VisibilityMPH,Wind Direction,Wind SpeedMPH,Gust SpeedMPH,PrecipitationIn,Events,Conditions,WindDirDegrees,DateUTC
12:55 AM,73.9,64.6,72,30.08,10.0,ENE,9.2,-,N/A,,Mostly Cloudy,70,2013-08-01 10:55:00
1:55 AM,73.6,63.5,71,30.07,10.0,East,11.5,-,N/A,,Clear,80,2013-08-01 11:55:00
2:55 AM,73.2,64.2,73,30.06,10.0,East,9.2,-,N/A,,Mostly Cloudy,90,2013-08-01 12:55:00
3:55 AM,73.2,64.6,74,30.06,10.0,Calm,Calm,-,N/A,,Scattered Clouds,0,2013-08-01 13:55:00
4:07 AM,73.4,64.4,73,30.06,10.0,Calm,Calm,-,N/A,,Light Drizzle,0,2013-08-01 14:07:00
4:26 AM,71.6,64.4,78,30.06,10.0,Calm,Calm,-,N/A,,Overcast,0,2013-08-01 14:26:00
4:32 AM,71.6,64.4,78,30.06,10.0,Variable,3.5,-,N/A,,Light Drizzle,0,2013-08-01 14:32:00
4:41 AM,73.4,66.2,78,30.06,10.0,East,8.1,-,N/A,,Overcast,100,2013-08-01 14:41:00
4:55 AM,72.5,66.4,81,30.06,10.0,ENE,3.5,-,0.00,,Overcast,70,2013-08-01 14:55:00
4:57 AM,71.6,66.2,83,30.06,10.0,ENE,3.5,-,N/A,,Light Drizzle,70,2013-08-01 14:57:00
5:13 AM,71.6,66.2,83,30.06,10.0,Calm,Calm,-,N/A,,Mostly Cloudy,0,2013-08-01 15:13:00
5:19 AM,71.6,66.2,83,30.07,10.0,East,8.1,-,N/A,Rain,Light Rain,90,2013-08-01 15:19:00
5:30 AM,71.6,66.2,83,30.07,10.0,ENE,6.9,-,N/A,,Mostly Cloudy,70,2013-08-01 15:30:00
5:55 AM,70.7,65.7,84,30.07,10.0,ENE,5.8,-,0.00,,Scattered Clouds,70,2013-08-01 15:55:00
6:55 AM,71.4,65.8,82,30.08,10.0,Variable,3.5,-,N/A,,Mostly Cloudy,0,2013-08-01 16:55:00
7:23 AM,71.6,66.2,83,30.07,10.0,Calm,Calm,-,N/A,,Light Drizzle,0,2013-08-01 17:23:00
7:50 AM,71.6,66.2,83,30.08,10.0,Calm,Calm,-,N/A,,Light Drizzle,0,2013-08-01 17:50:00
7:55 AM,72.3,66.7,83,30.08,10.0,Calm,Calm,-,0.00,,Light Drizzle,0,2013-08-01 17:55:00
8:02 AM,71.6,66.2,83,30.08,10.0,Calm,Calm,-,N/A,,Light Drizzle,0,2013-08-01 18:02:00
8:04 AM,71.6,66.2,83,30.08,10.0,Variable,3.5,-,N/A,,Overcast,0,2013-08-01 18:04:00
8:35 AM,73.4,66.2,78,30.07,10.0,ENE,3.5,-,N/A,Rain,Light Rain,60,2013-08-01 18:35:00
8:46 AM,73.4,68.0,83,30.07,10.0,East,5.8,-,N/A,,Overcast,100,2013-08-01 18:46:00
8:55 AM,74.1,67.3,79,30.07,10.0,Calm,Calm,-,0.00,,Mostly Cloudy,0,2013-08-01 18:55:00
9:55 AM,75.6,65.8,72,30.07,10.0,Variable,5.8,-,N/A,,Overcast,0,2013-08-01 19:55:00
10:55 AM,76.3,65.7,70,30.06,10.0,East,15.0,25.3,N/A,,Overcast,80,2013-08-01 20:55:00
11:55 AM,77.4,62.8,61,30.06,10.0,ENE,9.2,17.3,N/A,,Overcast,70,2013-08-01 21:55:00
12:48 PM,78.8,64.4,61,30.05,10.0,East,12.7,-,N/A,,Overcast,80,2013-08-01 22:48:00
12:55 PM,79.2,64.8,61,30.05,10.0,ENE,11.5,-,N/A,,Overcast,60,2013-08-01 22:55:00
1:55 PM,78.4,64.9,63,30.05,10.0,East,11.5,-,N/A,,Overcast,80,2013-08-01 23:55:00
2:55 PM,81.1,62.2,52,30.02,10.0,ENE,10.4,23.0,N/A,,Partly Cloudy,70,2013-08-02 00:55:00
4:55 PM,78.1,64.6,63,30.01,10.0,East,11.5,-,N/A,,Mostly Cloudy,90,2013-08-02 02:55:00
5:45 PM,77.0,66.2,69,30.01,8.0,East,13.8,20.7,N/A,,Light Drizzle,100,2013-08-02 03:45:00
5:55 PM,75.2,66.0,73,30.02,9.0,East,16.1,21.9,0.00,,Mostly Cloudy,80,2013-08-02 03:55:00
6:55 PM,72.3,65.3,78,30.04,10.0,ENE,10.4,-,N/A,,Scattered Clouds,70,2013-08-02 04:55:00
7:55 PM,72.3,65.1,78,30.05,10.0,East,5.8,-,N/A,,Clear,80,2013-08-02 05:55:00
8:55 PM,73.0,64.9,76,30.05,10.0,Calm,Calm,-,N/A,,Mostly Cloudy,0,2013-08-02 06:55:00
9:55 PM,72.5,65.5,79,30.07,10.0,Variable,3.5,-,N/A,,Overcast,0,2013-08-02 07:55:00
10:55 PM,72.7,65.5,78,30.07,10.0,Calm,Calm,-,N/A,,Mostly Cloudy,0,2013-08-02 08:55:00
11:31 PM,73.4,66.2,78,30.06,10.0,NE,6.9,-,N/A,,Light Drizzle,40,2013-08-02 09:31:00
11:40 PM,73.4,66.2,78,30.06,10.0,ENE,5.8,-,N/A,,Overcast,60,2013-08-02 09:40:00
11:55 PM,72.0,65.7,80,30.06,10.0,Calm,Calm,-,0.00,,Overcast,0,2013-08-02 09:55:00